Temp
44 44 43 42 42 43 42 41 39 38 37 37 36 36 36 35 35 36 35 34 34 34 33 34 33 33 33 33 33 33 32 33 33 33 32 33 32 32 33 33 32 33 34
43 43 42 40 41 40 40 39 38 38 37 36 35 36 35 35 35 35 34 34 33 33 33 32 31 32 31 31 31 31 31 31 31 27 29 30 29 31 31 30 31 33 33
42 41 41 40 40 40 38 37 37 36 36 35 35 35 35 34 34 35 35 34 34 33 32 32 31 31 29 29 29 29 30 29 29 27 27 28 29 30 30 31 30 31 32
40 41 40 39 39 39 38 36 36 36 35 34 35 35 35 34 33 33 33 32 32 32 32 32 31 30 30 29 28 28 28 27 26 25 25 26 27 29 28 27 28 31 29
39 40 40 39 39 38 36 35 35 35 35 35 34 33 33 33 33 33 33 32 31 31 30 31 31 31 32 30 29 27 26 25 25 24 24 25 25 25 25 27 25 27 29
38 38 39 37 36 35 34 34 34 33 33 32 32 32 32 33 36 37 33 31 31 31 29 29 30 29 31 34 34 32 29 24 22 23 25 24 25 26 26 25 25 23 22
37 36 35 35 34 34 34 33 32 32 32 32 32 31 31 32 38 37 36 32 31 30 30 30 29 30 28 29 34 35 34 33 31 26 25 26 26 27 26 25 25 23 22
35 35 35 34 33 33 33 32 33 32 31 32 31 31 31 31 36 37 36 31 30 30 30 30 30 29 28 27 27 27 28 28 30 32 31 29 29 29 28 28 25 22 21
34 33 33 33 32 32 31 31 32 31 31 31 31 30 30 30 37 38 35 29 28 28 28 30 30 29 31 34 27 23 25 26 30 33 34 34 34 34 34 27 19 17 19
33 33 32 32 31 30 32 31 31 31 30 30 27 28 29 28 36 36 35 31 29 29 27 27 29 30 32 34 30 26 23 26 25 24 25 27 30 29 30 26 23 18 16
31 30 30 31 30 31 31 31 30 28 27 26 26 26 27 28 31 35 36 31 30 30 28 28 28 32 34 34 34 29 27 28 26 26 24 23 24 24 23 23 22 20 17
29 28 28 28 30 30 28 28 28 28 26 26 26 25 26 27 29 34 35 34 33 30 30 30 29 31 33 34 34 34 34 33 31 28 24 22 20 20 21 21 20 20 20
27 26 27 28 29 30 29 28 27 28 27 26 26 26 26 26 27 32 33 34 35 33 31 31 31 32 33 33 34 34 31 29 27 25 23 21 20 22 21 19 19 18 18
28 28 29 29 29 30 30 30 29 28 28 27 27 28 29 27 26 26 28 30 32 32 32 30 31 31 30 29 25 26 24 24 22 22 21 21 19 17 16 17 15 14 11
30 29 30 30 30 29 29 30 30 31 32 30 30 31 29 24 25 27 26 25 25 27 16 17 18 19 20 20 19 19 19 19 18 18 17 16 16 15 14 15 12 11 7
26 26 27 27 26 26 25 23 30 31 33 33 32 29 21 28 30 31 31 30 28 28 15 14 14 15 16 15 14 14 15 14 14 13 13 12 11 11 11 12 10 7 5
23 21 21 21 22 22 21 21 21 26 32 29 29 29 27 27 30 30 31 30 30 29 14 11 12 11 10 11 11 10 9 10 8 9 8 8 9 8 7 7 7 6 4
17 17 18 17 17 17 17 17 20 23 23 21 28 27 28 29 30 30 30 20 11 9 7 6 6 6 6 5 5 5 4 4 5 5 4 3 2 3 3 3 3 2 1
17 14 13 13 13 14 14 14 14 15 14 10 12 17 14 28 25 18 14 6 6 3 -1 1 -0 -0 -0 -1 -1 -2 -3 -1 -1 -1 -1 -2 -1 -1 -2 -1 1 -0 1
9 10 8 8 7 7 8 8 8 8 8 7 7 5 4 9 3 -1 -4 -3 -1 -1 -3 -2 -6 -7 -6 -5 -6 -6 -5 -5 -4 -4 -4 -4 -3 -4 -2 -4 -3 -2 -1
4 5 4 3 2 2 3 4 5 5 5 4 3 3 8 3 0 -2 -2 -3 -3 -5 -6 -6 -8 -8 -9 -9 -9 -8 -8 -5 -7 -8 -7 -6 -7 -5 -5 -3 -3 -3 -3
3 1 1 0 1 1 -1 1 1 1 -1 -0 -0 1 15 1 -2 -4 -5 -7 -8 -9 -9 -8 -8 -9 -9 -9 -8 -8 -8 -7 -8 -9 -8 -9 -8 -7 -7 -5 -5 -4 -4
-1 -2 -3 -6 -5 -5 -6 -7 -5 -5 -5 -5 -3 -2 -3 -4 -4 -5 -5 -8 -10 -9 -12 -14 -11 -11 -12 -14 -11 -8 -7 -7 -6 -8 -8 -8 -8 -7 -7 -6 -7 -8 -7
-5 -5 -6 -10 -9 -9 -8 -9 -8 -9 -8 -9 -10 -8 -5 -8 -9 -7 -8 -10 -12 -13 -16 -15 -15 -13 -12 -13 -13 -13 -12 -10 -11 -10 -10 -8 -8 -9 -7 -8 -8 -8 -9
-10 -9 -10 -11 -14 -13 -13 -14 -11 -15 -14 -10 -11 -11 -11 -11 -11 -13 -13 -14 -15 -14 -13 -14 -14 -13 -12 -12 -11 -12 -14 -7 -7 -11 -12 -10 -10 -11 -10 -9 -10 -12 -13
-12 -12 -15 -16 -16 -18 -17 -14 -15 -13 -13 -11 -12 -13 -12 -12 -12 -13 -14 -16 -15 -14 -13 -12 -12 -13 -12 -10 -10 -8 -10 -5 -8 -10 -10 -10 -11 -12 -13 -13 -15 -15 -14
MSLP
1016.67 1017.44 1018.10 1018.85 1019.56 1020.22 1020.83 1021.50 1022.14 1022.91 1023.73 1024.48 1025.01 1025.89 1026.57 1027.34 1028.06 1028.64 1029.33 1029.89 1030.31 1031.04 1031.74 1032.10 1032.72 1033.22 1033.58 1033.79 1033.99 1034.20 1034.67 1035.04 1035.39 1035.84 1036.19 1036.06 1036.05 1035.95 1035.81 1035.77 1035.53 1034.96 1034.81
1015.91 1016.81 1017.55 1018.34 1019.18 1020.00 1020.69 1021.42 1022.05 1022.75 1023.63 1024.36 1024.96 1025.70 1026.47 1027.24 1028.00 1028.50 1029.17 1029.85 1030.37 1031.00 1031.63 1032.21 1032.78 1033.14 1033.63 1033.89 1034.06 1034.37 1034.77 1035.29 1035.62 1036.00 1036.13 1036.17 1036.03 1035.73 1035.53 1035.37 1035.03 1034.63 1034.33
1015.64 1016.14 1016.74 1017.31 1018.18 1019.13 1020.07 1021.01 1021.89 1022.72 1023.67 1024.57 1025.19 1025.95 1026.67 1027.28 1027.99 1028.55 1028.95 1029.70 1030.37 1030.97 1031.39 1032.02 1032.41 1032.93 1033.42 1033.83 1034.17 1034.43 1034.87 1035.37 1035.79 1035.92 1035.99 1036.08 1035.91 1035.60 1035.06 1034.62 1034.37 1034.12 1033.91
1015.31 1015.91 1016.32 1016.90 1017.69 1018.64 1019.50 1020.33 1021.18 1022.07 1023.00 1023.97 1024.72 1025.49 1026.25 1027.01 1027.62 1028.33 1029.00 1029.69 1030.45 1031.15 1031.47 1031.89 1032.34 1032.60 1032.85 1033.44 1033.86 1034.12 1034.64 1035.20 1035.61 1035.71 1035.87 1035.85 1035.63 1035.20 1034.93 1034.13 1033.48 1033.36 1033.10
1014.64 1015.17 1015.40 1016.15 1016.97 1017.82 1018.81 1019.78 1020.72 1021.61 1022.51 1023.39 1024.31 1025.38 1026.19 1026.87 1027.47 1028.09 1028.77 1029.56 1030.41 1031.05 1031.52 1031.87 1032.25 1032.36 1032.63 1033.01 1033.28 1033.65 1034.24 1034.74 1035.07 1035.20 1035.23 1035.13 1034.88 1034.73 1034.18 1033.69 1033.23 1032.80 1032.56
1013.89 1014.42 1014.93 1015.53 1016.33 1017.23 1018.16 1019.13 1020.04 1020.77 1021.63 1022.82 1023.71 1024.53 1025.34 1026.21 1026.94 1027.69 1028.49 1029.15 1029.98 1030.79 1031.31 1031.81 1032.15 1032.48 1032.54 1032.51 1032.59 1032.96 1033.49 1033.88 1034.06 1034.48 1034.21 1034.09 1033.78 1033.75 1033.51 1033.27 1033.00 1032.75 1032.09
1013.17 1013.76 1014.45 1015.29 1016.10 1016.88 1017.68 1018.54 1019.30 1020.06 1020.75 1021.57 1022.72 1023.77 1024.68 1025.53 1026.02 1027.00 1027.92 1028.90 1029.67 1030.19 1030.69 1031.37 1031.84 1031.98 1032.30 1032.27 1032.08 1032.22 1032.48 1032.76 1032.88 1033.45 1033.19 1033.03 1032.91 1032.91 1032.89 1032.61 1032.43 1032.33 1032.22
1012.69 1013.45 1014.12 1014.80 1015.73 1016.79 1017.59 1018.22 1019.11 1019.90 1020.59 1021.01 1021.93 1022.89 1023.95 1024.91 1025.85 1026.41 1027.25 1028.43 1029.33 1029.76 1030.15 1030.71 1031.06 1031.32 1031.62 1031.87 1032.09 1032.17 1032.25 1032.26 1031.98 1032.09 1032.07 1031.98 1032.18 1032.26 1032.28 1031.90 1032.06 1031.96 1032.11
1011.74 1012.54 1013.45 1014.33 1015.30 1016.30 1017.25 1017.86 1018.75 1019.84 1020.56 1021.17 1021.81 1022.63 1023.30 1024.23 1024.89 1025.60 1026.75 1028.03 1028.46 1029.16 1029.78 1030.12 1030.33 1030.58 1030.75 1030.88 1031.33 1031.54 1031.53 1031.46 1031.59 1031.58 1031.32 1031.04 1031.02 1031.02 1030.89 1031.04 1031.75 1031.96 1031.01
1011.68 1012.34 1013.19 1013.85 1014.84 1015.79 1016.48 1017.31 1018.29 1019.23 1020.46 1021.38 1022.22 1022.77 1023.24 1024.01 1024.68 1025.44 1026.28 1026.94 1027.86 1028.54 1028.93 1029.36 1029.48 1029.76 1030.06 1030.13 1030.22 1030.48 1030.51 1030.35 1030.98 1031.10 1031.02 1030.65 1030.53 1030.53 1030.62 1030.65 1030.77 1030.99 1031.13
1011.76 1012.49 1013.38 1013.93 1014.80 1015.72 1016.53 1017.23 1018.23 1019.38 1020.67 1021.76 1022.63 1023.12 1023.55 1023.99 1024.48 1024.97 1025.44 1026.18 1026.83 1027.30 1027.76 1028.12 1028.42 1028.58 1028.75 1029.02 1029.07 1029.37 1029.30 1029.71 1029.91 1029.94 1030.00 1030.12 1030.22 1030.23 1030.20 1030.16 1030.27 1030.46 1030.50
1011.90 1012.57 1013.36 1014.20 1014.87 1015.97 1016.86 1017.80 1018.44 1019.35 1020.44 1021.58 1022.38 1023.15 1023.59 1023.85 1024.21 1024.53 1024.77 1025.36 1025.97 1026.32 1026.66 1027.12 1027.42 1027.78 1027.89 1027.94 1028.00 1028.06 1028.27 1028.42 1028.65 1028.94 1029.18 1029.39 1029.63 1029.71 1029.66 1029.77 1029.88 1029.98 1030.01
1012.43 1013.10 1013.49 1014.27 1014.94 1015.82 1016.68 1017.62 1018.44 1019.30 1020.31 1020.98 1021.60 1022.27 1022.87 1023.37 1023.73 1023.84 1024.20 1024.52 1025.03 1025.34 1025.73 1025.97 1026.63 1026.82 1027.02 1027.15 1027.23 1027.48 1027.77 1028.21 1028.46 1028.59 1028.83 1029.09 1029.24 1029.06 1029.20 1029.48 1029.56 1029.69 1029.66
1013.32 1013.75 1014.22 1014.68 1015.36 1016.08 1016.69 1017.33 1017.74 1018.80 1019.69 1020.31 1020.90 1021.44 1021.99 1022.50 1022.97 1023.34 1023.74 1024.08 1024.39 1024.71 1025.04 1025.36 1025.84 1026.11 1026.53 1026.89 1027.47 1027.74 1028.16 1028.41 1028.64 1028.72 1028.92 1029.09 1029.13 1029.21 1029.23 1029.32 1029.44 1029.61 1029.60
1013.46 1014.04 1014.63 1015.15 1015.85 1016.48 1016.92 1017.24 1017.70 1018.25 1018.67 1019.30 1019.81 1020.45 1021.27 1022.01 1022.15 1022.55 1023.06 1023.52 1023.94 1024.51 1025.98 1026.21 1026.41 1026.72 1026.87 1027.25 1027.75 1028.18 1028.53 1028.73 1028.90 1029.04 1029.14 1029.20 1029.20 1029.20 1029.15 1029.31 1029.38 1029.43 1029.51
1013.97 1014.36 1014.94 1015.62 1016.24 1016.97 1017.51 1018.08 1018.34 1018.70 1019.06 1019.54 1019.87 1020.38 1021.11 1021.19 1021.63 1021.94 1022.30 1022.85 1023.40 1024.00 1025.20 1025.92 1026.50 1026.84 1027.17 1027.57 1028.04 1028.49 1028.82 1029.12 1029.26 1029.33 1029.38 1029.37 1029.34 1029.36 1029.30 1029.32 1029.47 1029.53 1029.41
1014.78 1015.33 1015.80 1016.32 1016.97 1017.49 1018.05 1018.53 1019.01 1019.27 1019.65 1020.18 1020.40 1020.80 1021.20 1021.31 1021.50 1021.93 1022.37 1022.70 1022.75 1023.49 1024.84 1025.99 1026.70 1027.21 1027.65 1028.08 1028.62 1029.10 1029.34 1029.48 1029.64 1029.50 1029.54 1029.57 1029.61 1029.59 1029.52 1029.42 1029.42 1029.42 1029.26
1015.54 1016.13 1016.58 1017.08 1017.67 1018.19 1018.65 1019.12 1019.46 1019.68 1020.14 1020.79 1020.82 1021.34 1021.49 1021.78 1021.99 1022.29 1022.56 1023.32 1024.30 1024.94 1025.96 1026.78 1027.38 1027.90 1028.38 1028.73 1029.10 1029.32 1029.47 1029.63 1029.77 1029.82 1029.91 1029.88 1029.91 1029.86 1029.71 1029.57 1029.54 1029.42 1029.23
1016.82 1017.20 1017.47 1018.07 1018.62 1018.97 1019.36 1019.84 1020.19 1020.59 1021.26 1021.86 1022.12 1022.11 1022.38 1022.53 1022.88 1023.46 1024.11 1024.67 1025.48 1026.30 1027.11 1027.51 1027.88 1028.29 1028.68 1029.06 1029.41 1029.59 1029.72 1029.74 1029.81 1029.93 1029.90 1029.91 1029.99 1030.03 1029.84 1029.75 1029.51 1029.27 1029.15
1018.35 1018.85 1018.94 1019.21 1019.67 1020.16 1020.52 1020.89 1021.39 1021.78 1022.43 1022.85 1023.13 1023.54 1023.81 1024.02 1024.63 1025.32 1025.69 1026.00 1026.35 1026.83 1027.27 1027.59 1028.09 1028.42 1028.73 1028.99 1029.26 1029.43 1029.65 1029.75 1029.85 1029.92 1029.94 1029.95 1030.05 1030.02 1029.70 1029.69 1029.52 1029.30 1029.06
1019.36 1020.05 1020.30 1020.58 1020.98 1021.28 1021.57 1021.84 1022.22 1022.66 1023.09 1023.58 1024.00 1024.33 1024.42 1024.89 1025.45 1025.90 1026.24 1026.58 1026.88 1027.29 1027.63 1027.92 1028.25 1028.52 1028.79 1029.02 1029.31 1029.32 1029.37 1029.50 1029.52 1029.61 1029.75 1029.79 1029.86 1029.82 1029.60 1029.40 1029.26 1029.20 1028.96
1020.22 1020.87 1021.39 1021.80 1022.15 1022.44 1022.72 1022.81 1023.05 1023.32 1023.81 1024.33 1024.82 1024.95 1024.61 1025.68 1026.11 1026.49 1026.83 1027.10 1027.43 1027.71 1027.80 1027.87 1028.00 1028.26 1028.53 1028.63 1028.86 1028.96 1028.94 1028.94 1028.99 1029.32 1029.41 1029.38 1029.45 1029.43 1029.32 1029.11 1029.07 1029.05 1028.86
1021.64 1022.03 1022.80 1023.44 1023.42 1023.69 1023.96 1024.14 1024.25 1024.53 1024.88 1025.15 1025.38 1025.55 1025.81 1026.13 1026.35 1026.63 1026.88 1027.13 1027.53 1027.61 1027.85 1028.15 1027.99 1028.03 1028.11 1028.36 1028.51 1028.39 1028.33 1028.23 1028.36 1028.73 1028.77 1028.80 1028.91 1028.91 1028.89 1028.78 1028.78 1028.93 1028.84
1022.79 1023.33 1024.01 1024.36 1024.36 1024.63 1024.74 1024.88 1025.04 1025.25 1025.52 1025.83 1026.09 1026.18 1026.12 1026.30 1026.46 1026.61 1026.85 1027.05 1027.33 1027.44 1027.65 1027.63 1027.61 1027.52 1027.49 1027.56 1027.62 1027.75 1027.78 1027.64 1027.86 1027.98 1028.09 1028.18 1028.25 1028.30 1028.38 1028.36 1028.47 1028.55 1028.61
1024.24 1024.74 1024.91 1025.18 1025.43 1025.60 1025.72 1025.82 1025.95 1026.11 1026.30 1026.22 1026.35 1026.45 1026.39 1026.43 1026.49 1026.58 1026.80 1027.03 1027.09 1027.07 1026.87 1026.90 1026.86 1026.76 1026.75 1026.70 1026.77 1026.86 1026.95 1026.86 1026.90 1027.08 1027.34 1027.56 1027.60 1027.66 1027.78 1027.78 1027.97 1028.22 1028.33
1025.12 1025.32 1025.63 1025.80 1026.28 1026.36 1026.42 1026.53 1026.62 1026.66 1026.58 1026.34 1026.25 1026.26 1026.28 1026.31 1026.25 1026.22 1026.35 1026.66 1026.51 1026.26 1026.11 1026.09 1026.07 1026.07 1025.99 1025.91 1025.92 1025.92 1025.90 1025.85 1025.97 1026.02 1026.27 1026.61 1026.85 1026.90 1027.06 1027.19 1027.41 1027.76 1027.70
Wind_Speed
13 12 11 10 10 10 10 10 11 10 11 12 12 12 12 11 10 9 9 9 10 9 7 7 8 8 5 5 4 4 4 2 2 1 2 1 4 5 6 6 7 7 7
13 12 12 11 11 10 10 10 11 12 11 12 12 12 11 11 10 11 11 9 10 10 9 8 9 6 6 5 4 5 5 4 3 4 2 2 5 5 8 8 6 6 8
12 13 13 14 14 13 12 12 11 12 12 10 11 12 11 11 10 8 9 10 9 8 8 8 9 9 7 5 5 5 4 4 4 4 3 2 3 4 5 6 6 7 7
13 13 13 14 13 12 12 13 14 13 14 13 13 12 12 11 10 9 9 8 7 6 7 6 8 9 9 9 7 7 6 5 5 6 6 6 5 5 5 6 7 6 9
14 14 14 13 13 13 13 13 13 13 13 13 13 10 9 9 8 10 9 8 8 6 5 5 6 8 11 10 6 7 7 6 6 6 7 5 7 5 5 3 7 10 9
14 15 13 14 14 14 13 14 14 14 14 13 13 13 13 8 16 17 12 9 8 7 7 5 5 7 11 15 15 12 11 8 8 5 7 9 10 7 5 6 7 8 7
15 13 13 13 13 14 14 14 15 16 16 16 14 14 13 10 21 19 17 7 8 7 7 7 7 6 8 7 14 16 16 18 16 8 11 10 10 8 7 9 10 9 9
14 12 12 13 13 12 13 14 14 13 15 15 14 14 12 10 20 21 18 8 6 6 7 8 9 8 9 9 7 8 8 8 10 8 10 10 9 7 10 11 10 7 5
14 13 12 13 12 13 13 13 11 12 11 12 12 13 13 11 23 21 16 8 6 6 7 8 9 9 12 16 8 9 9 10 10 19 22 22 21 21 19 6 4 4 9
11 11 11 12 13 13 13 12 10 10 9 7 8 9 10 10 20 21 17 6 8 7 6 9 15 13 16 18 11 8 10 10 7 7 7 12 14 11 12 7 5 7 5
8 9 9 10 11 10 10 9 10 10 10 8 8 7 8 10 12 21 20 8 9 8 7 7 7 19 21 20 19 10 12 8 10 10 7 7 7 7 7 6 6 7 7
9 10 10 10 9 9 12 9 11 11 11 9 9 6 6 7 11 18 19 21 16 9 8 6 7 16 19 20 15 17 19 16 7 6 5 5 5 6 6 7 8 7 8
9 9 9 10 10 11 12 12 10 9 8 9 8 7 7 6 6 20 20 20 22 12 7 11 13 16 18 14 16 16 12 5 5 6 5 4 4 5 5 4 6 8 10
9 9 9 10 10 9 7 8 9 9 8 7 8 8 7 7 7 6 7 8 15 12 13 7 9 9 9 5 1 2 1 2 3 4 4 3 2 2 4 5 5 5 7
9 8 8 7 8 8 5 7 7 6 9 8 8 7 7 7 8 11 10 7 6 6 5 2 2 2 3 2 1 2 1 1 2 3 4 5 6 6 6 5 6 5 6
7 6 6 6 5 5 6 5 8 6 8 6 7 6 1 4 10 13 15 14 12 14 2 3 2 3 3 3 3 2 0 0 1 2 3 4 6 7 7 6 5 5 6
6 5 5 5 4 5 5 6 6 4 10 7 5 6 8 7 7 10 12 11 10 12 3 3 3 4 3 2 1 1 1 2 2 2 3 4 4 5 6 5 5 5 6
7 7 4 4 4 4 5 5 5 8 7 3 5 9 9 11 9 8 10 11 3 5 2 3 3 3 2 2 2 2 1 2 2 2 2 3 3 3 4 4 4 5 6
6 4 5 4 3 4 4 4 4 5 5 4 2 8 6 11 13 13 11 3 2 2 2 3 3 3 3 2 2 1 2 2 2 1 1 2 3 2 3 4 5 6 7
7 8 6 5 4 4 4 4 4 4 5 3 3 2 1 4 2 2 2 1 2 2 3 3 3 3 3 3 3 2 2 2 2 2 2 2 2 3 4 4 4 5 5
5 5 6 5 4 3 3 4 3 4 4 3 2 2 5 2 3 3 2 2 2 3 3 3 3 3 2 2 3 3 3 3 2 3 3 3 2 3 3 4 5 4 5
5 5 5 4 3 4 3 3 3 4 4 5 3 2 9 2 3 2 2 2 2 2 2 3 3 4 4 4 4 4 4 4 3 4 4 3 3 3 3 4 4 4 5
6 6 6 4 4 5 5 3 4 4 3 3 3 3 2 3 3 3 3 3 3 3 3 3 4 4 4 4 4 5 5 5 5 4 4 4 3 4 4 5 4 4 5
6 6 5 3 3 3 3 3 3 3 3 3 2 2 2 2 3 3 3 3 3 4 3 4 4 6 4 4 4 4 5 5 4 5 6 4 5 4 5 5 5 5 5
4 4 4 4 3 3 3 2 1 1 2 2 3 3 3 3 3 4 4 3 4 4 5 5 4 6 8 8 7 8 8 11 7 7 4 5 6 6 5 5 4 3 4
4 4 3 3 2 1 1 1 2 3 3 3 4 3 4 4 4 4 4 4 4 5 5 4 6 9 9 7 9 10 10 11 9 10 7 6 6 6 5 6 5 4 6
Wind_Direction
175 176 171 172 170 168 175 168 166 154 157 164 158 155 155 153 150 141 143 142 136 138 140 140 142 150 147 135 120 114 124 136 188 281 278 334 290 281 287 297 301 299 297
174 169 172 162 165 170 175 168 162 164 162 163 159 159 157 155 155 153 149 153 151 155 156 145 154 151 152 147 147 153 161 166 164 236 284 260 249 273 278 287 294 289 295
171 173 176 173 175 178 174 166 165 160 162 158 157 160 164 161 158 155 154 158 159 159 158 168 165 164 163 169 177 173 169 171 195 219 258 252 273 269 277 282 286 295 291
177 184 183 180 179 179 172 170 169 169 163 164 168 168 169 164 161 157 153 155 157 164 168 171 172 179 176 183 188 187 179 186 201 225 250 264 261 264 264 294 300 302 308
183 189 187 179 177 172 170 170 166 168 170 170 162 161 159 161 163 159 156 158 162 163 160 181 194 196 200 194 180 191 185 198 213 229 243 250 252 255 254 278 290 307 306
187 195 185 175 174 174 169 168 168 169 164 162 169 166 162 166 174 172 161 161 161 168 177 200 208 204 217 213 213 208 201 191 214 217 244 246 259 259 260 272 284 301 319
194 189 182 176 177 178 171 170 173 174 166 169 166 164 168 165 174 177 173 166 168 171 171 195 212 215 208 216 229 229 228 225 224 217 242 241 263 250 261 272 273 268 271
192 189 181 175 174 173 174 176 176 173 177 173 170 169 161 167 180 182 174 154 171 187 186 202 216 215 209 207 215 233 240 243 247 250 245 253 253 261 245 262 272 274 278
189 183 177 173 167 166 175 173 169 170 174 173 168 162 164 169 182 178 167 164 174 205 213 216 220 228 223 226 213 229 242 245 248 251 255 261 263 263 261 234 221 257 285
181 176 166 162 163 171 171 166 164 160 157 149 152 167 164 159 179 180 178 165 194 217 203 224 215 224 235 234 233 221 246 253 232 236 246 264 270 274 262 229 235 254 268
135 140 151 156 156 157 145 142 139 132 130 139 155 161 165 164 182 190 194 183 210 214 219 218 216 229 235 235 234 228 240 263 254 255 242 244 241 245 246 234 216 229 239
133 134 135 134 137 136 132 133 136 137 144 156 158 161 184 178 180 201 209 212 216 208 226 224 221 222 236 241 244 250 261 270 269 263 246 244 245 249 248 238 232 234 242
123 126 128 128 133 142 141 142 138 144 159 167 175 179 185 183 198 211 223 218 231 242 224 224 215 230 238 245 250 259 270 269 269 270 275 274 254 269 267 249 247 247 254
125 129 131 132 137 141 144 154 151 162 168 170 178 192 195 191 200 195 210 229 240 244 245 210 218 222 214 219 146 280 18 307 297 295 297 303 313 283 278 267 278 261 263
124 126 129 129 139 144 136 159 167 174 181 183 194 195 189 196 208 199 199 205 206 202 127 129 146 176 216 243 140 133 119 337 292 299 299 302 300 299 296 288 274 274 261
116 117 124 127 118 122 117 89 77 134 149 145 151 164 166 158 194 213 216 213 212 208 113 154 172 187 178 152 144 136 121 308 303 310 301 298 300 301 301 305 266 266 277
114 113 107 111 120 131 128 130 120 111 137 115 141 180 178 173 180 191 190 191 193 183 137 161 164 164 161 159 164 192 237 276 304 310 310 304 298 299 296 296 292 287 282
89 85 104 110 122 124 132 132 133 150 149 108 146 140 135 158 155 168 156 108 77 49 79 135 150 150 163 183 196 209 251 301 304 311 296 302 302 296 295 287 288 283 286
83 87 98 99 96 109 116 118 111 112 121 123 89 66 34 119 97 64 47 72 119 128 136 147 162 171 181 181 188 210 229 246 232 252 270 301 307 282 276 274 279 277 286
67 71 70 86 87 87 89 110 110 110 120 122 115 105 67 61 66 51 49 116 134 144 157 160 169 167 174 179 180 198 216 218 226 240 266 277 278 253 267 269 269 283 286
84 77 84 79 78 88 108 120 131 138 144 145 145 186 162 138 172 176 178 166 156 154 171 179 179 188 196 191 207 207 222 254 245 260 264 259 254 258 255 265 274 269 276
84 80 68 84 91 86 93 101 119 123 135 145 153 252 140 110 140 157 173 195 195 195 195 192 201 205 203 198 202 217 231 243 247 244 250 245 241 246 255 264 269 277 277
72 77 65 60 73 83 74 71 90 103 120 124 136 140 141 167 176 189 199 205 209 214 208 212 225 230 220 220 217 220 221 229 228 213 230 235 233 240 242 259 260 264 263
66 70 81 76 65 76 89 88 87 99 126 152 170 189 191 194 203 217 218 218 221 227 222 221 223 233 240 234 223 223 230 240 224 222 212 221 230 234 243 241 241 245 265
71 84 78 78 77 80 75 68 106 170 199 210 220 226 230 230 233 238 243 239 242 243 240 224 224 236 245 244 240 235 232 246 227 208 203 211 220 221 229 232 229 243 251
62 66 72 77 81 93 138 234 259 253 243 247 243 243 245 244 245 243 241 241 243 242 245 239 237 238 243 243 242 244 236 235 228 220 205 208 216 225 222 233 230 237 249